Skip Page Navigation
NASA JPL Caltech
NASA Logo - Jet Propulsion Laboratory + View the NASA Portal
+ Center for Near-Earth Object Studies
JPL Home Earth Solar System Stars & Galaxies Technology
JPL Solar System Dynamics
BODIES ORBITS EPHEMERIDES TOOLS PHYSICAL DATA DISCOVERY FAQ SITE MAP
IMPORTANT: The SSD Announcement email list is now available. Major changes are coming in the near future, including possible hostname and/or URL changes. To be notified of such changes, subscribe to this email list.

Please visit this page for more details.


JPL Small-Body Database Browser
Search: [ help ]  
437916 (2002 GE60)
Classification: Main-belt Asteroid          SPK-ID: 2437916
Ephemeris | Orbit Diagram | Orbital Elements | Mission Design | Physical Parameters | Discovery Circumstances | Close-Approach Data ]

[ show orbit diagram ]
Orbital Elements at Epoch 2458600.5 (2019-Apr-27.0) TDB
Reference: JPL 12 (heliocentric ecliptic J2000)
 Element Value Uncertainty (1-sigma)   Units 
e .2614930444643676 7.0599e-08  
a 2.645859735153408 2.0271e-08 au
q 1.953985817782459 1.9316e-07 au
i 14.01329243688306 8.7143e-06 deg
node 208.5811678290733 2.2848e-05 deg
peri 13.17961477808691 3.7677e-05 deg
M 341.2940077170538 1.9804e-05 deg
tp 2458682.182101523922
(2019-Jul-17.68210152)
8.6793e-05 TDB
period 1571.985923217773
4.30
1.8066e-05
4.946e-08
d
yr
n .229009684299907 2.6318e-09 deg/d
Q 3.337733652524358 2.5572e-08 au
  Orbit Determination Parameters
   # obs. used (total)      162  
   data-arc span      6287 days (17.21 yr)  
   first obs. used      2002-04-08  
   last obs. used      2019-06-25  
   planetary ephem.      DE431  
   SB-pert. ephem.      SB431-N16  
   condition code      0  
   norm. resid. RMS      .6211  
   source      ORB  
   producer      Otto Matic  
   solution date      2019-Sep-24 07:38:01  

Additional Information
 Earth MOID = .949188 au 
 Jupiter MOID = 1.64208 au 
 T_jup = 3.302 
[ show covariance matrix ]

Ephemeris | Orbit Diagram | Orbital Elements | Mission Design | Physical Parameters | Discovery Circumstances | Close-Approach Data ]

Physical Parameter Table
Parameter Symbol Value Units Sigma Reference Notes
absolute magnitude H 17.3   n/a MPO392157  

437916 (2002 GE60)          Discovered 2002-Apr-08 by Spacewatch at Kitt Peak
Reference: Last Updated: 2015-07-06

[ show close-approach data ]
Alternate Designations
 2002 GE60 = 2015 KC8 
Ephemeris | Orbit Diagram | Orbital Elements | Mission Design | Physical Parameters | Discovery Circumstances | Close-Approach Data ]
ABOUT SSD CREDITS/AWARDS PRIVACY/COPYRIGHT GLOSSARY LINKS
FirstGov 2019-Dec-12 01:27 UT
(server date/time)  
NASA Home Page
Site Manager:   Ryan S. Park
Webmaster  Alan B. Chamberlin